Time,TemperatureF,DewpointF,PressureIn,WindDirection,WindDirectionDegrees,WindSpeedMPH,WindSpeedGustMPH,Humidity,HourlyPrecipIn,Conditions,Clouds,dailyrainin,SoftwareType,DateUTC
2013-01-04 00:03:00,43.3,31.9,30.21,NNE,22,3.1,5.1,64,0.00,,,0.00,WUHU21623XXSP,2013-01-04 06:03:00,
2013-01-04 00:08:00,43.3,31.9,30.20,NNE,22,3.6,3.6,64,0.00,,,0.00,WUHU21623XXSP,2013-01-04 06:08:00,
2013-01-04 00:13:00,43.3,31.9,30.20,NE,45,4.9,4.9,64,0.00,,,0.00,WUHU21623XXSP,2013-01-04 06:13:00,
2013-01-04 00:18:00,43.3,31.9,30.21,NNE,22,0.0,4.9,64,0.00,,,0.00,WUHU21623XXSP,2013-01-04 06:18:00,
2013-01-04 00:23:00,43.3,31.9,30.20,NNE,22,0.0,0.0,64,0.00,,,0.00,WUHU21623XXSP,2013-01-04 06:23:00,
2013-01-04 00:28:00,43.3,31.6,30.20,NE,45,0.0,3.6,63,0.00,,,0.00,WUHU21623XXSP,2013-01-04 06:28:00,
2013-01-04 00:33:00,43.3,31.6,30.21,NE,45,0.0,3.6,63,0.00,,,0.00,WUHU21623XXSP,2013-01-04 06:33:00,
2013-01-04 00:38:00,43.3,31.9,30.21,NE,45,0.0,0.0,64,0.00,,,0.00,WUHU21623XXSP,2013-01-04 06:38:00,
2013-01-04 00:43:00,43.3,31.9,30.20,NE,45,1.8,2.7,64,0.00,,,0.00,WUHU21623XXSP,2013-01-04 06:43:00,
2013-01-04 00:48:00,43.3,31.9,30.20,NNE,22,5.8,5.8,64,0.00,,,0.00,WUHU21623XXSP,2013-01-04 06:48:00,
2013-01-04 00:53:00,43.3,31.9,30.20,NNE,22,2.9,5.8,64,0.00,,,0.00,WUHU21623XXSP,2013-01-04 06:53:00,
2013-01-04 00:58:00,43.3,31.9,30.20,NNE,22,4.9,4.9,64,0.00,,,0.00,WUHU21623XXSP,2013-01-04 06:58:00,
2013-01-04 01:03:00,43.3,31.9,30.20,NE,45,2.7,6.0,64,0.00,,,0.00,WUHU21623XXSP,2013-01-04 07:03:00,
2013-01-04 01:08:00,43.3,31.9,30.20,NNE,22,5.8,6.0,64,0.00,,,0.00,WUHU21623XXSP,2013-01-04 07:08:00,
2013-01-04 01:13:00,43.5,32.1,30.20,NNE,22,5.4,5.8,64,0.00,,,0.00,WUHU21623XXSP,2013-01-04 07:13:00,
2013-01-04 01:18:00,43.5,32.1,30.20,NNE,22,4.0,5.8,64,0.00,,,0.00,WUHU21623XXSP,2013-01-04 07:18:00,
2013-01-04 01:23:00,43.5,32.1,30.20,NNE,22,4.3,5.8,64,0.00,,,0.00,WUHU21623XXSP,2013-01-04 07:23:00,
2013-01-04 01:28:00,43.5,32.1,30.21,NNE,22,4.7,4.7,64,0.00,,,0.00,WUHU21623XXSP,2013-01-04 07:28:00,
2013-01-04 01:33:00,43.3,31.9,30.21,NNE,22,1.1,4.9,64,0.00,,,0.00,WUHU21623XXSP,2013-01-04 07:33:00,
2013-01-04 01:38:00,43.3,31.9,30.21,NNE,22,5.4,5.4,64,0.00,,,0.00,WUHU21623XXSP,2013-01-04 07:38:00,
2013-01-04 01:43:00,43.5,32.1,30.21,North,0,4.5,5.4,64,0.00,,,0.00,WUHU21623XXSP,2013-01-04 07:43:00,
2013-01-04 01:48:00,43.5,32.1,30.21,North,0,2.5,5.4,64,0.00,,,0.00,WUHU21623XXSP,2013-01-04 07:48:00,
2013-01-04 01:53:00,43.5,32.1,30.22,North,0,0.7,2.5,64,0.00,,,0.00,WUHU21623XXSP,2013-01-04 07:53:00,
2013-01-04 01:58:00,43.5,32.1,30.20,NNE,22,5.4,5.4,64,0.00,,,0.00,WUHU21623XXSP,2013-01-04 07:58:00,
2013-01-04 02:03:00,43.5,32.1,30.20,NE,45,1.3,5.4,64,0.00,,,0.00,WUHU21623XXSP,2013-01-04 08:03:00,
2013-01-04 02:08:00,43.5,31.7,30.20,NNE,22,3.6,3.8,63,0.00,,,0.00,WUHU21623XXSP,2013-01-04 08:08:00,
2013-01-04 02:13:00,43.5,32.1,30.20,NNE,22,3.4,6.7,64,0.00,,,0.00,WUHU21623XXSP,2013-01-04 08:13:00,
2013-01-04 02:18:00,43.5,32.1,30.21,NNE,22,2.9,6.7,64,0.00,,,0.00,WUHU21623XXSP,2013-01-04 08:18:00,
2013-01-04 02:23:00,43.5,32.1,30.21,NNE,22,3.1,3.4,64,0.00,,,0.00,WUHU21623XXSP,2013-01-04 08:23:00,
2013-01-04 02:28:00,43.3,32.3,30.21,North,0,5.1,5.1,65,0.00,,,0.00,WUHU21623XXSP,2013-01-04 08:28:00,
2013-01-04 02:33:00,43.3,32.7,30.21,NNE,22,4.5,6.5,66,0.00,,,0.00,WUHU21623XXSP,2013-01-04 08:33:00,
2013-01-04 02:38:00,43.2,32.5,30.22,NNE,22,5.4,6.5,66,0.00,,,0.00,WUHU21623XXSP,2013-01-04 08:38:00,
2013-01-04 02:43:00,43.0,32.8,30.22,NNW,337,5.4,6.3,67,0.00,,,0.00,WUHU21623XXSP,2013-01-04 08:43:00,
2013-01-04 02:48:00,43.0,32.8,30.22,NNW,337,5.4,6.3,68,0.00,,,0.00,WUHU21623XXSP,2013-01-04 08:48:00,
2013-01-04 02:53:00,43.0,33.2,30.22,NNW,337,8.1,8.1,68,0.00,,,0.00,WUHU21623XXSP,2013-01-04 08:53:00,
2013-01-04 02:58:00,42.6,32.8,30.23,NNW,337,6.3,8.9,68,0.00,,,0.00,WUHU21623XXSP,2013-01-04 08:58:00,
2013-01-04 03:03:00,42.6,33.2,30.23,North,0,8.9,8.9,69,0.00,,,0.00,WUHU21623XXSP,2013-01-04 09:03:00,
2013-01-04 03:08:00,42.6,33.2,30.23,NNE,22,8.1,8.9,69,0.00,,,0.00,WUHU21623XXSP,2013-01-04 09:08:00,
2013-01-04 03:13:00,42.4,33.2,30.23,NNE,22,5.8,8.1,69,0.00,,,0.00,WUHU21623XXSP,2013-01-04 09:13:00,
2013-01-04 03:18:00,42.4,33.0,30.24,North,0,6.5,8.1,69,0.00,,,0.00,WUHU21623XXSP,2013-01-04 09:18:00,
2013-01-04 03:23:00,42.4,33.4,30.24,North,0,6.0,8.3,70,0.00,,,0.00,WUHU21623XXSP,2013-01-04 09:23:00,
2013-01-04 03:28:00,42.4,33.4,30.24,North,0,4.9,8.3,70,0.00,,,0.00,WUHU21623XXSP,2013-01-04 09:28:00,
2013-01-04 03:33:00,42.4,33.4,30.24,NNE,22,6.3,9.8,70,0.00,,,0.00,WUHU21623XXSP,2013-01-04 09:33:00,
2013-01-04 03:38:00,42.4,33.8,30.24,NE,45,8.7,9.8,71,0.00,,,0.00,WUHU21623XXSP,2013-01-04 09:38:00,
2013-01-04 03:43:00,42.4,33.8,30.24,North,0,6.7,8.7,71,0.00,,,0.00,WUHU21623XXSP,2013-01-04 09:43:00,
2013-01-04 03:48:00,42.4,33.8,30.23,North,0,6.7,7.4,71,0.00,,,0.00,WUHU21623XXSP,2013-01-04 09:48:00,
2013-01-04 03:53:00,42.4,33.8,30.24,North,0,6.7,6.7,71,0.00,,,0.00,WUHU21623XXSP,2013-01-04 09:53:00,
2013-01-04 03:58:00,40.8,34.1,30.23,NE,45,4.9,6.7,77,0.00,,,0.00,WUHU21623XXSP,2013-01-04 09:58:00,
2013-01-04 04:03:00,40.5,33.9,30.24,NNE,22,5.6,6.7,77,0.00,,,0.00,WUHU21623XXSP,2013-01-04 10:03:00,
2013-01-04 04:08:00,40.3,33.9,30.24,NNE,22,5.1,10.7,78,0.00,,,0.00,WUHU21623XXSP,2013-01-04 10:08:00,
2013-01-04 04:13:00,39.9,33.9,30.24,North,0,5.8,10.7,80,0.00,,,0.00,WUHU21623XXSP,2013-01-04 10:13:00,
2013-01-04 04:18:00,39.9,34.3,30.24,North,0,2.7,13.0,80,0.00,,,0.00,WUHU21623XXSP,2013-01-04 10:18:00,
2013-01-04 04:23:00,39.9,34.3,30.24,North,0,2.7,13.0,81,0.00,,,0.00,WUHU21623XXSP,2013-01-04 10:23:00,
2013-01-04 04:28:00,39.9,34.6,30.24,NE,45,4.3,4.3,81,0.00,,,0.00,WUHU21623XXSP,2013-01-04 10:28:00,
2013-01-04 04:33:00,39.9,34.6,30.24,NNE,22,9.4,9.4,82,0.00,,,0.00,WUHU21623XXSP,2013-01-04 10:33:00,
2013-01-04 04:38:00,39.9,34.8,30.24,NNE,22,9.4,9.4,82,0.00,,,0.00,WUHU21623XXSP,2013-01-04 10:38:00,
2013-01-04 04:43:00,39.9,34.8,30.24,NE,45,8.1,9.4,82,0.00,,,0.00,WUHU21623XXSP,2013-01-04 10:43:00,
2013-01-04 04:48:00,39.9,34.8,30.24,NNE,22,8.5,9.4,82,0.00,,,0.00,WUHU21623XXSP,2013-01-04 10:48:00,
2013-01-04 04:53:00,39.9,34.8,30.24,NNE,22,8.5,8.5,82,0.00,,,0.00,WUHU21623XXSP,2013-01-04 10:53:00,
2013-01-04 04:58:00,39.9,34.8,30.24,NNE,22,8.5,8.5,82,0.00,,,0.00,WUHU21623XXSP,2013-01-04 10:58:00,
2013-01-04 05:03:00,39.9,34.8,30.24,NNE,22,8.5,8.5,82,0.00,,,0.00,WUHU21623XXSP,2013-01-04 11:03:00,
2013-01-04 05:08:00,39.9,34.8,30.24,NNE,22,8.5,8.5,82,0.00,,,0.00,WUHU21623XXSP,2013-01-04 11:08:00,
2013-01-04 05:13:00,39.9,34.6,30.24,NNE,22,8.5,8.5,81,0.00,,,0.00,WUHU21623XXSP,2013-01-04 11:13:00,
2013-01-04 05:18:00,39.9,34.6,30.24,NNE,22,6.5,8.5,81,0.00,,,0.00,WUHU21623XXSP,2013-01-04 11:18:00,
2013-01-04 05:23:00,39.9,34.6,30.24,NNE,22,6.5,6.5,81,0.00,,,0.00,WUHU21623XXSP,2013-01-04 11:23:00,
2013-01-04 05:28:00,39.9,34.6,30.24,NNE,22,6.5,6.5,81,0.00,,,0.00,WUHU21623XXSP,2013-01-04 11:28:00,
2013-01-04 05:33:00,39.9,34.6,30.24,NNE,22,6.5,6.5,81,0.00,,,0.00,WUHU21623XXSP,2013-01-04 11:33:00,
2013-01-04 05:38:00,39.9,34.6,30.25,NNE,22,5.4,6.5,81,0.00,,,0.00,WUHU21623XXSP,2013-01-04 11:38:00,
2013-01-04 05:43:00,39.9,34.6,30.25,NNE,22,5.4,5.4,81,0.00,,,0.00,WUHU21623XXSP,2013-01-04 11:43:00,
2013-01-04 05:48:00,39.9,34.6,30.25,NNE,22,5.4,5.4,81,0.00,,,0.00,WUHU21623XXSP,2013-01-04 11:48:00,
2013-01-04 05:53:00,39.9,34.6,30.25,NNE,22,5.4,5.4,81,0.00,,,0.00,WUHU21623XXSP,2013-01-04 11:53:00,
2013-01-04 05:58:00,39.9,34.6,30.25,NE,45,11.9,11.9,81,0.00,,,0.00,WUHU21623XXSP,2013-01-04 11:58:00,
2013-01-04 06:03:00,39.6,34.2,30.25,NNE,22,14.3,14.3,81,0.00,,,0.00,WUHU21623XXSP,2013-01-04 12:03:00,
2013-01-04 06:08:00,39.6,34.2,30.25,NNE,22,14.1,14.3,81,0.00,,,0.00,WUHU21623XXSP,2013-01-04 12:08:00,
2013-01-04 06:13:00,39.6,34.2,30.25,NNE,22,14.1,14.3,81,0.00,,,0.00,WUHU21623XXSP,2013-01-04 12:13:00,
2013-01-04 06:18:00,39.6,34.2,30.26,NNE,22,14.1,14.1,81,0.00,,,0.00,WUHU21623XXSP,2013-01-04 12:18:00,
2013-01-04 06:23:00,39.6,34.2,30.25,NNE,22,14.1,14.1,82,0.00,,,0.00,WUHU21623XXSP,2013-01-04 12:23:00,
2013-01-04 06:28:00,39.4,34.5,30.25,NNE,22,14.1,14.1,82,0.00,,,0.00,WUHU21623XXSP,2013-01-04 12:28:00,
2013-01-04 06:33:00,39.4,34.1,30.25,NE,45,8.3,14.1,81,0.00,,,0.00,WUHU21623XXSP,2013-01-04 12:33:00,
2013-01-04 06:38:00,39.4,34.1,30.25,NE,45,8.3,8.3,81,0.00,,,0.00,WUHU21623XXSP,2013-01-04 12:38:00,
2013-01-04 06:43:00,39.4,34.1,30.25,NE,45,8.3,8.3,81,0.00,,,0.00,WUHU21623XXSP,2013-01-04 12:43:00,
2013-01-04 07:32:00,38.8,34.4,30.27,NNE,22,11.9,11.9,84,0.00,,,0.00,WUHU21623XXSP,2013-01-04 13:32:00,
2013-01-04 07:37:00,38.8,34.4,30.28,NNE,22,11.9,11.9,84,0.00,,,0.00,WUHU21623XXSP,2013-01-04 13:37:00,
2013-01-04 07:42:00,38.8,34.4,30.28,NNE,22,11.9,11.9,84,0.00,,,0.00,WUHU21623XXSP,2013-01-04 13:42:00,
2013-01-04 07:47:00,38.5,34.3,30.29,NE,45,10.7,11.9,85,0.00,,,0.00,WUHU21623XXSP,2013-01-04 13:47:00,
2013-01-04 07:52:00,38.5,34.3,30.28,NE,45,7.2,10.7,85,0.00,,,0.00,WUHU21623XXSP,2013-01-04 13:52:00,
2013-01-04 07:57:00,38.5,34.3,30.29,NNE,22,14.5,14.5,85,0.00,,,0.00,WUHU21623XXSP,2013-01-04 13:57:00,
2013-01-04 08:02:00,38.5,34.6,30.29,NNE,22,6.9,14.5,86,0.00,,,0.00,WUHU21623XXSP,2013-01-04 14:02:00,
2013-01-04 08:07:00,38.5,34.6,30.29,NNE,22,6.9,8.7,86,0.00,,,0.00,WUHU21623XXSP,2013-01-04 14:07:00,
2013-01-04 08:12:00,38.5,34.6,30.28,NNE,22,6.9,6.9,86,0.00,,,0.00,WUHU21623XXSP,2013-01-04 14:12:00,
2013-01-04 08:17:00,38.5,34.6,30.28,NNE,22,6.9,6.9,86,0.00,,,0.00,WUHU21623XXSP,2013-01-04 14:17:00,
2013-01-04 08:22:00,38.5,34.6,30.29,NNE,22,6.9,6.9,86,0.00,,,0.00,WUHU21623XXSP,2013-01-04 14:22:00,
2013-01-04 08:27:00,38.5,34.6,30.29,NNE,22,6.9,6.9,86,0.00,,,0.00,WUHU21623XXSP,2013-01-04 14:27:00,
2013-01-04 09:08:00,39.4,34.9,30.30,ENE,67,10.1,10.1,84,0.00,,,0.00,WUHU21623XXSP,2013-01-04 15:08:00,
2013-01-04 09:13:00,39.4,35.2,30.31,NE,45,5.8,10.1,85,0.00,,,0.00,WUHU21623XXSP,2013-01-04 15:13:00,
2013-01-04 09:18:00,39.4,35.2,30.30,NE,45,11.4,11.4,85,0.02,,,0.02,WUHU21623XXSP,2013-01-04 15:18:00,
2013-01-04 09:23:00,39.4,35.2,30.31,ENE,67,15.0,15.0,85,0.02,,,0.02,WUHU21623XXSP,2013-01-04 15:23:00,
2013-01-04 09:28:00,39.4,35.5,30.31,NE,45,10.7,15.0,86,0.02,,,0.02,WUHU21623XXSP,2013-01-04 15:28:00,
2013-01-04 09:33:00,39.4,35.5,30.31,NE,45,9.2,10.7,86,0.02,,,0.02,WUHU21623XXSP,2013-01-04 15:33:00,
2013-01-04 09:38:00,39.4,35.5,30.30,ENE,67,12.3,13.9,86,0.02,,,0.02,WUHU21623XXSP,2013-01-04 15:38:00,
2013-01-04 09:43:00,39.4,35.5,30.30,NE,45,6.7,13.9,86,0.02,,,0.02,WUHU21623XXSP,2013-01-04 15:43:00,
2013-01-04 09:48:00,39.6,35.7,30.30,NNE,22,5.1,13.2,86,0.02,,,0.02,WUHU21623XXSP,2013-01-04 15:48:00,
2013-01-04 09:53:00,39.6,35.7,30.31,NNE,22,10.1,13.2,86,0.02,,,0.02,WUHU21623XXSP,2013-01-04 15:53:00,
2013-01-04 09:58:00,39.4,35.5,30.31,NE,45,10.5,12.5,86,0.02,,,0.02,WUHU21623XXSP,2013-01-04 15:58:00,
2013-01-04 10:03:00,39.6,35.7,30.31,NNE,22,11.0,14.8,86,0.02,,,0.02,WUHU21623XXSP,2013-01-04 16:03:00,
2013-01-04 10:08:00,39.7,35.9,30.31,NNE,22,6.3,14.8,86,0.02,,,0.02,WUHU21623XXSP,2013-01-04 16:08:00,
2013-01-04 10:13:00,39.7,35.9,30.31,NE,45,8.7,12.3,86,0.00,,,0.02,WUHU21623XXSP,2013-01-04 16:13:00,
2013-01-04 10:18:00,39.9,35.9,30.31,NE,45,11.6,12.3,86,0.00,,,0.02,WUHU21623XXSP,2013-01-04 16:18:00,
2013-01-04 10:23:00,39.9,36.0,30.31,NE,45,11.4,11.6,86,0.00,,,0.02,WUHU21623XXSP,2013-01-04 16:23:00,
2013-01-04 10:28:00,40.1,36.2,30.31,NE,45,14.5,14.5,86,0.00,,,0.02,WUHU21623XXSP,2013-01-04 16:28:00,
2013-01-04 10:33:00,39.9,35.7,30.31,NE,45,10.3,14.5,85,0.00,,,0.02,WUHU21623XXSP,2013-01-04 16:33:00,
2013-01-04 10:38:00,39.9,35.7,30.31,NNE,22,10.3,10.3,85,0.00,,,0.02,WUHU21623XXSP,2013-01-04 16:38:00,
2013-01-04 10:43:00,39.9,35.7,30.31,NE,45,13.6,13.6,84,0.00,,,0.02,WUHU21623XXSP,2013-01-04 16:43:00,
2013-01-04 10:48:00,40.1,35.4,30.31,NNE,22,12.8,13.6,84,0.00,,,0.02,WUHU21623XXSP,2013-01-04 16:48:00,
2013-01-04 10:53:00,40.1,35.6,30.31,NNE,22,12.8,12.8,84,0.00,,,0.02,WUHU21623XXSP,2013-01-04 16:53:00,
2013-01-04 10:58:00,40.1,35.6,30.30,NNE,22,12.8,12.8,84,0.00,,,0.02,WUHU21623XXSP,2013-01-04 16:58:00,
2013-01-04 11:03:00,40.1,35.6,30.30,NNE,22,12.8,12.8,84,0.00,,,0.02,WUHU21623XXSP,2013-01-04 17:03:00,
2013-01-04 12:04:00,40.8,36.0,30.27,NE,45,7.6,7.6,83,0.00,,,0.02,WUHU21623XXSP,2013-01-04 18:04:00,
2013-01-04 12:09:00,40.8,36.3,30.27,NE,45,10.3,10.3,84,0.00,,,0.02,WUHU21623XXSP,2013-01-04 18:09:00,
2013-01-04 12:14:00,40.8,36.3,30.26,NE,45,12.3,12.3,84,0.00,,,0.02,WUHU21623XXSP,2013-01-04 18:14:00,
2013-01-04 12:19:00,40.8,36.3,30.26,NE,45,9.8,61.5,83,0.00,,,0.02,WUHU21623XXSP,2013-01-04 18:19:00,
2013-01-04 12:24:00,41.0,36.2,30.26,NE,45,9.8,61.5,83,0.00,,,0.02,WUHU21623XXSP,2013-01-04 18:24:00,
2013-01-04 12:29:00,41.0,36.2,30.26,NE,45,9.8,9.8,83,0.00,,,0.02,WUHU21623XXSP,2013-01-04 18:29:00,
2013-01-04 12:34:00,41.0,36.2,30.25,NE,45,9.8,9.8,83,0.00,,,0.02,WUHU21623XXSP,2013-01-04 18:34:00,
2013-01-04 12:39:00,41.0,36.2,30.25,NE,45,9.8,9.8,83,0.00,,,0.02,WUHU21623XXSP,2013-01-04 18:39:00,
2013-01-04 12:44:00,41.0,36.2,30.25,NE,45,9.8,9.8,83,0.00,,,0.02,WUHU21623XXSP,2013-01-04 18:44:00,
2013-01-04 12:49:00,41.0,36.2,30.25,NE,45,9.8,9.8,83,0.00,,,0.02,WUHU21623XXSP,2013-01-04 18:49:00,
2013-01-04 14:42:00,43.9,36.4,30.19,ENE,67,8.3,8.3,75,0.00,,,0.02,WUHU21623XXSP,2013-01-04 20:42:00,
2013-01-04 14:47:00,44.1,36.6,30.19,NE,45,7.4,8.3,75,0.00,,,0.02,WUHU21623XXSP,2013-01-04 20:47:00,
2013-01-04 14:52:00,43.9,36.6,30.18,NE,45,13.0,13.0,74,0.00,,,0.02,WUHU21623XXSP,2013-01-04 20:52:00,
2013-01-04 14:57:00,43.9,36.1,30.19,NE,45,13.0,13.0,74,0.00,,,0.02,WUHU21623XXSP,2013-01-04 20:57:00,
2013-01-04 15:02:00,43.9,36.1,30.18,NNE,22,8.7,13.0,74,0.00,,,0.02,WUHU21623XXSP,2013-01-04 21:02:00,
2013-01-04 15:07:00,43.9,36.1,30.18,ENE,67,12.3,13.0,74,0.00,,,0.02,WUHU21623XXSP,2013-01-04 21:07:00,
2013-01-04 15:12:00,44.2,36.3,30.19,NE,45,8.1,12.3,74,0.00,,,0.02,WUHU21623XXSP,2013-01-04 21:12:00,
2013-01-04 15:17:00,44.1,35.6,30.19,NNE,22,8.1,8.1,72,0.00,,,0.02,WUHU21623XXSP,2013-01-04 21:17:00,
2013-01-04 15:22:00,44.1,35.9,30.19,ENE,67,12.3,12.3,73,0.00,,,0.02,WUHU21623XXSP,2013-01-04 21:22:00,
2013-01-04 15:27:00,44.2,36.4,30.19,ENE,67,6.5,12.3,74,0.00,,,0.02,WUHU21623XXSP,2013-01-04 21:27:00,
2013-01-04 15:32:00,44.2,36.4,30.19,NE,45,5.8,12.3,74,0.00,,,0.02,WUHU21623XXSP,2013-01-04 21:32:00,
2013-01-04 15:37:00,44.2,36.1,30.19,ENE,67,10.5,10.5,73,0.00,,,0.02,WUHU21623XXSP,2013-01-04 21:37:00,
2013-01-04 15:42:00,44.4,36.3,30.19,ENE,67,10.5,10.5,73,0.00,,,0.02,WUHU21623XXSP,2013-01-04 21:42:00,
2013-01-04 15:47:00,44.4,36.3,30.19,ENE,67,10.5,10.5,73,0.00,,,0.02,WUHU21623XXSP,2013-01-04 21:47:00,
2013-01-04 15:52:00,43.9,35.8,30.20,NE,45,7.2,10.5,74,0.00,,,0.02,WUHU21623XXSP,2013-01-04 21:52:00,
2013-01-04 15:57:00,43.9,35.9,30.20,NE,45,7.2,10.5,74,0.00,,,0.02,WUHU21623XXSP,2013-01-04 21:57:00,
2013-01-04 16:02:00,43.7,35.9,30.20,NE,45,6.7,7.2,74,0.00,,,0.02,WUHU21623XXSP,2013-01-04 22:02:00,
2013-01-04 16:07:00,43.9,36.1,30.20,NE,45,7.4,7.4,74,0.00,,,0.02,WUHU21623XXSP,2013-01-04 22:07:00,
2013-01-04 16:12:00,43.9,36.1,30.20,ENE,67,11.0,11.0,74,0.00,,,0.02,WUHU21623XXSP,2013-01-04 22:12:00,
2013-01-04 16:17:00,43.9,36.1,30.20,NE,45,6.0,11.0,74,0.00,,,0.02,WUHU21623XXSP,2013-01-04 22:17:00,
2013-01-04 16:22:00,43.9,36.1,30.20,NE,45,6.0,9.8,75,0.00,,,0.02,WUHU21623XXSP,2013-01-04 22:22:00,
2013-01-04 16:27:00,43.9,36.4,30.20,NE,45,6.0,6.0,75,0.00,,,0.02,WUHU21623XXSP,2013-01-04 22:27:00,
2013-01-04 16:32:00,43.9,36.4,30.20,NE,45,6.0,6.0,74,0.00,,,0.02,WUHU21623XXSP,2013-01-04 22:32:00,
2013-01-04 16:37:00,43.9,36.4,30.20,NE,45,9.4,9.4,75,0.00,,,0.02,WUHU21623XXSP,2013-01-04 22:37:00,
2013-01-04 16:42:00,43.9,36.4,30.20,NE,45,9.4,9.4,75,0.00,,,0.02,WUHU21623XXSP,2013-01-04 22:42:00,
2013-01-04 16:47:00,43.9,36.4,30.20,NE,45,8.9,9.4,75,0.00,,,0.02,WUHU21623XXSP,2013-01-04 22:47:00,
2013-01-04 16:52:00,43.5,36.1,30.20,NE,45,5.1,8.9,75,0.00,,,0.02,WUHU21623XXSP,2013-01-04 22:52:00,
2013-01-04 16:57:00,43.5,36.1,30.20,NNE,22,5.6,8.9,75,0.00,,,0.02,WUHU21623XXSP,2013-01-04 22:57:00,
2013-01-04 17:02:00,43.5,36.1,30.20,NNE,22,5.6,5.6,75,0.00,,,0.02,WUHU21623XXSP,2013-01-04 23:02:00,
2013-01-04 17:07:00,43.3,35.9,30.20,NE,45,6.7,8.7,75,0.00,,,0.02,WUHU21623XXSP,2013-01-04 23:07:00,
2013-01-04 17:12:00,43.3,35.9,30.20,NE,45,10.1,10.1,75,0.00,,,0.02,WUHU21623XXSP,2013-01-04 23:12:00,
2013-01-04 17:17:00,43.3,35.9,30.20,NE,45,3.8,10.1,75,0.00,,,0.02,WUHU21623XXSP,2013-01-04 23:17:00,
2013-01-04 17:22:00,43.3,35.9,30.20,NE,45,4.5,10.1,75,0.00,,,0.02,WUHU21623XXSP,2013-01-04 23:22:00,
2013-01-04 17:27:00,43.3,35.9,30.20,NE,45,4.5,8.5,75,0.00,,,0.02,WUHU21623XXSP,2013-01-04 23:27:00,
2013-01-04 17:32:00,43.2,36.1,30.20,NE,45,7.2,11.6,77,0.00,,,0.02,WUHU21623XXSP,2013-01-04 23:32:00,
2013-01-04 17:37:00,43.2,36.4,30.20,NE,45,7.2,11.6,77,0.00,,,0.02,WUHU21623XXSP,2013-01-04 23:37:00,
2013-01-04 17:42:00,43.2,36.4,30.20,NNE,22,5.1,7.2,77,0.00,,,0.02,WUHU21623XXSP,2013-01-04 23:42:00,
2013-01-04 17:47:00,43.2,36.4,30.20,NNE,22,5.1,5.1,77,0.00,,,0.02,WUHU21623XXSP,2013-01-04 23:47:00,
2013-01-04 17:52:00,43.2,36.4,30.20,NNE,22,5.1,5.1,77,0.00,,,0.02,WUHU21623XXSP,2013-01-04 23:52:00,
2013-01-04 17:57:00,43.2,36.4,30.20,NNE,22,5.1,5.1,77,0.00,,,0.02,WUHU21623XXSP,2013-01-04 23:57:00,
2013-01-04 18:02:00,43.2,36.4,30.20,NNE,22,5.1,5.1,77,0.00,,,0.02,WUHU21623XXSP,2013-01-05 00:02:00,
2013-01-04 18:34:00,42.6,36.5,30.21,NE,45,3.1,3.1,79,0.00,,,0.02,WUHU21623XXSP,2013-01-05 00:34:00,
2013-01-04 18:39:00,42.6,36.5,30.21,NE,45,3.1,3.1,79,0.00,,,0.02,WUHU21623XXSP,2013-01-05 00:39:00,
2013-01-04 18:44:00,42.6,36.5,30.21,NE,45,3.1,3.1,79,0.00,,,0.02,WUHU21623XXSP,2013-01-05 00:44:00,
2013-01-04 18:49:00,42.6,36.6,30.21,South,180,3.1,3.1,79,0.00,,,0.02,WUHU21623XXSP,2013-01-05 00:49:00,
2013-01-04 18:54:00,42.6,36.6,30.21,South,180,3.1,3.1,79,0.00,,,0.02,WUHU21623XXSP,2013-01-05 00:54:00,
2013-01-04 18:59:00,42.6,36.9,30.22,South,180,3.1,3.1,80,0.00,,,0.02,WUHU21623XXSP,2013-01-05 00:59:00,
2013-01-04 19:04:00,42.6,36.9,30.22,South,180,3.1,3.1,80,0.00,,,0.02,WUHU21623XXSP,2013-01-05 01:04:00,
2013-01-04 19:09:00,42.6,36.9,30.22,South,180,59.3,59.3,80,0.00,,,0.02,WUHU21623XXSP,2013-01-05 01:09:00,
2013-01-04 19:14:00,42.6,36.9,30.22,South,180,59.3,59.3,80,0.00,,,0.02,WUHU21623XXSP,2013-01-05 01:14:00,
2013-01-04 19:33:00,41.5,36.7,30.21,NNE,22,4.0,4.0,83,0.00,,,0.02,WUHU21623XXSP,2013-01-05 01:33:00,
2013-01-04 19:38:00,41.5,36.7,30.20,NNE,22,4.0,4.0,83,0.00,,,0.02,WUHU21623XXSP,2013-01-05 01:38:00,
2013-01-04 19:43:00,41.5,36.7,30.20,NE,45,5.1,5.1,83,0.00,,,0.02,WUHU21623XXSP,2013-01-05 01:43:00,
2013-01-04 19:48:00,41.5,37.0,30.20,NNE,22,3.1,5.1,84,0.00,,,0.02,WUHU21623XXSP,2013-01-05 01:48:00,
2013-01-04 19:53:00,41.5,37.0,30.21,NNE,22,3.1,3.1,84,0.00,,,0.02,WUHU21623XXSP,2013-01-05 01:53:00,
2013-01-04 19:58:00,41.0,36.8,30.21,NE,45,2.7,3.1,85,0.00,,,0.02,WUHU21623XXSP,2013-01-05 01:58:00,
2013-01-04 20:03:00,41.0,37.1,30.21,NNE,22,2.5,5.1,86,0.00,,,0.02,WUHU21623XXSP,2013-01-05 02:03:00,
2013-01-04 20:08:00,41.0,37.1,30.21,NNE,22,0.4,5.1,86,0.02,,,0.04,WUHU21623XXSP,2013-01-05 02:08:00,
2013-01-04 20:13:00,41.0,37.1,30.21,NE,45,0.0,2.5,86,0.02,,,0.04,WUHU21623XXSP,2013-01-05 02:13:00,
2013-01-04 20:18:00,41.0,37.1,30.21,NE,45,1.8,3.1,86,0.02,,,0.04,WUHU21623XXSP,2013-01-05 02:18:00,
2013-01-04 20:23:00,41.0,36.9,30.21,NE,45,1.8,3.1,86,0.02,,,0.04,WUHU21623XXSP,2013-01-05 02:23:00,
2013-01-04 20:28:00,41.0,37.1,30.21,NE,45,1.8,1.8,86,0.02,,,0.04,WUHU21623XXSP,2013-01-05 02:28:00,
2013-01-04 20:33:00,41.0,37.1,30.21,NNE,22,0.7,1.8,86,0.02,,,0.04,WUHU21623XXSP,2013-01-05 02:33:00,
2013-01-04 20:38:00,41.2,37.3,30.21,NE,45,0.0,1.8,86,0.02,,,0.04,WUHU21623XXSP,2013-01-05 02:38:00,
2013-01-04 20:43:00,41.2,37.3,30.22,NE,45,5.4,5.4,86,0.02,,,0.04,WUHU21623XXSP,2013-01-05 02:43:00,
2013-01-04 20:48:00,41.0,37.1,30.22,NNE,22,2.5,5.4,86,0.02,,,0.04,WUHU21623XXSP,2013-01-05 02:48:00,
2013-01-04 20:53:00,41.2,37.3,30.22,NNE,22,2.0,5.4,86,0.02,,,0.04,WUHU21623XXSP,2013-01-05 02:53:00,
2013-01-04 20:58:00,41.2,37.3,30.22,South,180,0.0,2.2,86,0.02,,,0.04,WUHU21623XXSP,2013-01-05 02:58:00,
2013-01-04 21:03:00,41.2,37.3,30.21,NNE,22,0.0,2.2,86,0.00,,,0.04,WUHU21623XXSP,2013-01-05 03:03:00,
2013-01-04 21:08:00,41.2,37.6,30.22,NNE,22,0.0,0.0,87,0.00,,,0.04,WUHU21623XXSP,2013-01-05 03:08:00,
2013-01-04 21:13:00,41.2,37.6,30.22,NNE,22,0.0,0.0,87,0.00,,,0.04,WUHU21623XXSP,2013-01-05 03:13:00,
2013-01-04 21:18:00,41.2,37.6,30.22,NNE,22,0.0,0.0,87,0.00,,,0.04,WUHU21623XXSP,2013-01-05 03:18:00,
2013-01-04 21:23:00,41.2,37.6,30.22,NNE,22,0.0,0.0,87,0.00,,,0.04,WUHU21623XXSP,2013-01-05 03:23:00,
2013-01-04 21:28:00,41.2,37.6,30.21,NNE,22,1.8,1.8,87,0.00,,,0.04,WUHU21623XXSP,2013-01-05 03:28:00,
2013-01-04 21:33:00,41.2,37.6,30.21,NNE,22,0.0,1.8,87,0.00,,,0.04,WUHU21623XXSP,2013-01-05 03:33:00,
2013-01-04 21:38:00,41.2,37.6,30.21,NNE,22,0.0,0.0,87,0.00,,,0.04,WUHU21623XXSP,2013-01-05 03:38:00,
2013-01-04 21:43:00,41.2,37.6,30.21,NNE,22,3.1,3.1,87,0.00,,,0.04,WUHU21623XXSP,2013-01-05 03:43:00,
2013-01-04 21:48:00,41.4,37.4,30.21,NNE,22,2.9,3.1,86,0.00,,,0.04,WUHU21623XXSP,2013-01-05 03:48:00,
2013-01-04 21:53:00,41.4,37.4,30.21,NNE,22,1.3,3.1,86,0.00,,,0.04,WUHU21623XXSP,2013-01-05 03:53:00,
2013-01-04 21:58:00,41.4,37.4,30.21,NNE,22,1.3,1.3,86,0.00,,,0.04,WUHU21623XXSP,2013-01-05 03:58:00,
2013-01-04 22:03:00,41.4,37.4,30.21,NNE,22,1.3,1.3,86,0.00,,,0.04,WUHU21623XXSP,2013-01-05 04:03:00,
2013-01-04 22:08:00,41.4,37.4,30.21,NNE,22,1.3,1.3,86,0.00,,,0.04,WUHU21623XXSP,2013-01-05 04:08:00,
2013-01-04 22:13:00,41.4,37.4,30.21,NNE,22,1.1,1.3,86,0.00,,,0.04,WUHU21623XXSP,2013-01-05 04:13:00,
2013-01-04 22:18:00,41.4,37.4,30.21,North,0,3.1,3.1,86,0.00,,,0.04,WUHU21623XXSP,2013-01-05 04:18:00,
2013-01-04 22:23:00,41.4,37.4,30.21,North,0,3.1,3.1,86,0.00,,,0.04,WUHU21623XXSP,2013-01-05 04:23:00,
2013-01-04 22:28:00,41.5,37.6,30.21,NNE,22,0.0,3.1,86,0.00,,,0.04,WUHU21623XXSP,2013-01-05 04:28:00,
2013-01-04 22:33:00,41.5,37.6,30.21,NNE,22,1.6,3.1,86,0.00,,,0.04,WUHU21623XXSP,2013-01-05 04:33:00,
2013-01-04 22:38:00,41.5,37.6,30.21,NNE,22,0.9,3.1,86,0.00,,,0.04,WUHU21623XXSP,2013-01-05 04:38:00,
2013-01-04 22:43:00,41.5,37.6,30.21,NNE,22,0.0,0.9,86,0.00,,,0.04,WUHU21623XXSP,2013-01-05 04:43:00,
2013-01-04 22:48:00,41.5,37.6,30.21,NE,45,2.7,2.7,86,0.00,,,0.04,WUHU21623XXSP,2013-01-05 04:48:00,
2013-01-04 22:54:00,41.5,37.6,30.20,NNE,22,0.0,2.7,86,0.00,,,0.04,WUHU21623XXSP,2013-01-05 04:54:00,
2013-01-04 22:59:00,41.5,37.6,30.21,NNE,22,0.0,2.7,86,0.00,,,0.04,WUHU21623XXSP,2013-01-05 04:59:00,
2013-01-04 23:00:00,41.5,37.6,30.20,NNE,22,2.7,2.7,86,0.00,,,0.04,WUHU21623XXSP,2013-01-05 05:00:00,
2013-01-04 23:03:00,41.5,37.6,30.21,NNE,22,1.6,2.7,86,0.00,,,0.04,WUHU21623XXSP,2013-01-05 05:03:00,
2013-01-04 23:08:00,41.5,37.6,30.21,NNE,22,2.7,2.7,86,0.00,,,0.04,WUHU21623XXSP,2013-01-05 05:08:00,
2013-01-04 23:13:00,41.5,37.6,30.20,NNE,22,0.0,2.7,86,0.00,,,0.04,WUHU21623XXSP,2013-01-05 05:13:00,
2013-01-04 23:18:00,41.5,37.6,30.20,NNE,22,1.6,1.6,86,0.00,,,0.04,WUHU21623XXSP,2013-01-05 05:18:00,
2013-01-04 23:23:00,41.7,37.6,30.19,NNE,22,0.4,1.6,86,0.00,,,0.04,WUHU21623XXSP,2013-01-05 05:23:00,
2013-01-04 23:28:00,41.7,37.8,30.20,NNE,22,0.0,0.4,86,0.00,,,0.04,WUHU21623XXSP,2013-01-05 05:28:00,
2013-01-04 23:33:00,41.5,37.6,30.20,NNE,22,6.5,6.5,86,0.00,,,0.04,WUHU21623XXSP,2013-01-05 05:33:00,
2013-01-04 23:38:00,41.7,37.6,30.20,NNE,22,3.6,6.5,86,0.00,,,0.04,WUHU21623XXSP,2013-01-05 05:38:00,
2013-01-04 23:43:00,41.5,37.6,30.19,NNE,22,1.1,3.6,86,0.00,,,0.04,WUHU21623XXSP,2013-01-05 05:43:00,
2013-01-04 23:48:00,41.5,37.6,30.19,NNE,22,2.0,2.0,86,0.00,,,0.04,WUHU21623XXSP,2013-01-05 05:48:00,
2013-01-04 23:53:00,41.5,37.6,30.19,NNE,22,0.0,2.0,86,0.00,,,0.04,WUHU21623XXSP,2013-01-05 05:53:00,
2013-01-04 23:58:00,41.5,37.6,30.19,NNE,22,0.0,1.8,86,0.00,,,0.04,WUHU21623XXSP,2013-01-05 05:58:00,